Location: The Saddle
(36.8333°N, 80.3417°W)
Time: 08:26:50
(UTC-05:00)

A-11 Canister half - Pass Details

Date: 14 December 2023
Orbit: 1526 x 1682 km, 47.3° (Epoch: 27 February)

Event Time Altitude Azimuth Distance (km) Brightness Sun altitude
Rises 21:58:37 0° 300° (WNW) 4,936 12.1 -57.5°
Reaches altitude 10° 22:01:51 10° 303° (WNW) 3,942 11.5 -58.1°
Enters shadow 22:04:20 20° 306° (NW) 3,200 10.8 -58.6°
Maximum altitude 22:11:59 71° 27° (NNE) 1,732 - -60.1°
Drops below altitude 10° 22:21:50 10° 112° (ESE) 3,842 - -61.9°
Sets 22:24:56 0° 114° (ESE) 4,805 - -62.5°
